Regional Weather Roundup
Issued by NWS

Home | Current Version | Previous Version | Graphics & Text | Print | Product List | Glossary On
Versions: 1 2 3 4 5 6 7 8 9 10 11 12 13 14 15 16 17 18 19 20 21 22 23 24 25 26 27 28 29 30 31 32 33 34 35 36 37 38 39 40 41 42 43 44 45 46 47 48 49 50
717
ASUS43 KFSD 230202
RWRSD

WEATHER ROUNDUP FOR SOUTH DAKOTA
NATIONAL WEATHER SERVICE SIOUX FALLS SD
900 PM CDT SAT JUL 22 2017

NOTE: "FAIR" INDICATES FEW OR NO CLOUDS BELOW 12,000 FEET WITH NO
SIGNIFICANT WEATHER AND/OR OBSTRUCTIONS TO VISIBILITY.


SDZ001>005-009-010-012>017-230300-
NORTHWEST AND NORTH CENTRAL SOUTH DAKOTA

CITY           SKY/WX    TMP DP  RH WIND       PRES   REMARKS
BUFFALO          N/A     80  43  26 N13       29.99S
FAITH            N/A     81  42  25 N12       30.01R
MOBRIDGE       CLEAR     78  55  44 N8        29.93R
$$

SDZ012>016-024>037-041>051-057-063-072>074-230300-
SOUTHWEST AND SOUTH CENTRAL SOUTH DAKOTA

CITY           SKY/WX    TMP DP  RH WIND       PRES   REMARKS
RAPID CTY ARPT CLEAR     80  44  27 NE9       30.04S
PIERRE         CLEAR     82  46  28 N9        29.92R
CUSTER         CLEAR     75  38  26 E8        30.21S
PHILIP         CLEAR     86  39  19 N9        29.96R
PINE RIDGE     CLEAR     78  60  53 NE6       30.05R
SPEARFISH      LGT RAIN  81  39  22 NE6       30.11S
WINNER         FAIR      86  54  33 SW5       29.93S
$$

SDZ004>011-016>023-039-040-230300-
NORTHEAST SOUTH DAKOTA

CITY           SKY/WX    TMP DP  RH WIND       PRES   REMARKS
ABERDEEN       CLEAR     80  53  39 NW12      29.89R
WATERTOWN      CLEAR     73  62  68 W7        29.88F
BROOKINGS      CLEAR     78  66  66 SW6       29.91S
SISSETON         N/A     74  66  76 NE7       29.85R
$$

SDZ017-020-022-023-036>040-048>070-230300-
SOUTHEAST SOUTH DAKOTA

CITY           SKY/WX    TMP DP  RH WIND       PRES   REMARKS
SIOUX FALLS    PTCLDY    77  68  73 NW3       29.90S
HURON          CLEAR     80  61  52 W3        29.88F
CHAMBERLAIN    CLEAR     87  57  36 CALM      29.92S
MITCHELL       CLEAR     84  62  47 CALM      29.90S
YANKTON        CLEAR     81  70  69 CALM      29.91S
$$

ABBREVIATIONS USED IN REMARKS
   TC - TEMPERATURE IN CELSIUS
  WCI - WIND CHILL INDEX
   HX - HEAT INDEX
  VSB - VISIBILITY





USA.gov is the U.S. government's official web portal to all federal, state and local government web resources and services.